STARLINK-5303 (55630 NORAD) Tracking and Keplerian Element Data

This shows tracking and keplerian element data for the satellite.

Feedback or suggestion? Click here.




ElementValue
Catalog55630
NameSTARLINK-5303
Epoch Orbit624
Epoch Day85.16926895
Epoch Year2023
RAAN48.4208
Inclination70.0034
Eccentricity0.0007328
Argument of Perigee253.6834
Mean Anonmoly106.3546
Mean Motion15.51189263
Decay Rate-5.129E-05
L11 55630U 23021C 23085.16926895 -.00005129 00000+0 -84577-4 0 9994
L22 55630 70.0034 48.4208 0007328 253.6834 106.3546 15.51189263 6240



Live tracking and technical data element details for STARLINK-5303 (NORAD 55630). STARLINK-5303 can be tracked NOW for your location showing map with azimuth and elevation plus other details from your city location.







IsCatalogInMostPopularTable: catalog: 55630, numindb: 4
Update: records affected: 1



GetName: 55630 STARLINK-5303

Hit Count: updated at: Tue, 28 Mar 2023 02:22:08 GMT